SCP
0 0 0 0 0 0 0 0 0 0 0 0 0 0 0 0 0 0 0 -0 -0 -0 0 0 0 0 0 0 0 0 0 0 1 1 0 0 0 0 0 0 0 0 0
0 0 0 0 0 0 0 0 0 0 0 0 0 0 0 0 0 0 0 0 -0 -0 -0 0 0 0 0 0 0 0 1 1 1 0 0 0 0 0 0 0 0 0 0
0 0 0 0 0 0 0 0 0 0 0 0 0 0 0 0 0 0 0 0 0 -0 -0 -0 -0 0 0 0 0 0 0 0 1 1 1 0 0 0 0 0 0 0 0
0 0 0 0 0 0 0 0 0 0 0 0 0 0 0 0 0 0 0 0 0 0 -0 0 0 0 0 0 0 0 0 1 1 1 1 0 0 0 0 0 0 0 0
0 0 0 0 0 0 0 0 0 0 0 0 0 0 0 0 0 0 0 0 0 0 0 0 0 0 0 0 0 0 0 1 1 1 0 0 0 0 0 0 0 0 0
-0 -0 0 0 0 0 0 0 0 0 0 0 0 0 0 0 0 -0 -0 0 0 0 0 0 0 0 0 0 0 0 0 0 0 1 0 0 0 0 0 0 0 0 0
-0 -0 -0 -0 0 0 0 0 0 0 0 0 0 0 0 0 0 0 0 -0 0 0 0 0 0 0 0 0 0 0 0 0 0 0 0 0 0 0 0 0 0 0 0
-0 -0 -0 -0 -0 0 0 0 0 0 0 0 0 0 0 0 0 0 0 0 0 0 0 0 0 0 0 0 0 0 0 0 0 0 0 0 0 0 0 0 0 0 0
-0 -0 -0 -0 -0 0 0 0 0 0 0 0 0 0 0 0 0 -0 0 0 0 0 0 0 0 0 0 0 0 0 0 0 0 0 0 0 0 0 0 0 0 0 0
0 -0 -0 -0 -0 -0 0 0 0 0 -0 0 0 0 0 0 0 0 0 0 0 0 0 0 0 0 0 0 0 0 0 0 0 0 0 0 0 0 0 0 0 0 0
-0 -0 -0 -0 -0 -0 -0 0 0 0 -0 -0 0 0 0 0 0 0 0 0 0 0 0 0 0 0 0 0 0 0 0 0 0 0 0 0 0 0 0 0 0 0 0
-0 -0 -0 -0 -0 -0 -0 -0 0 0 -0 -0 -0 0 0 0 0 0 0 0 0 0 0 0 0 0 0 0 0 0 0 -0 0 0 0 0 0 0 0 0 0 0 0
-0 -0 -0 -0 -0 -0 -0 -0 -0 0 0 0 -0 0 0 0 0 0 0 0 0 0 0 0 0 -0 -0 0 0 0 0 0 0 0 0 0 0 0 0 0 0 0 0
-0 -0 -0 -0 -0 -0 -0 -0 -0 -0 -0 0 0 0 0 0 0 0 0 0 0 0 0 0 0 0 0 -0 0 0 0 0 0 0 0 0 0 0 0 0 0 0 -0
-0 -0 -0 -0 -0 -0 -0 -0 -0 -0 -0 -0 0 0 0 0 0 0 0 0 0 0 0 0 0 0 0 0 0 0 0 0 0 0 0 0 0 0 0 0 0 -0 -0
-0 -0 -0 -0 -0 -0 -0 -0 -0 -0 -0 -0 -0 0 0 0 -0 -0 0 0 0 0 0 0 0 0 0 0 0 0 0 0 0 0 0 0 0 0 0 0 0 -0 -0
-0 -0 -0 -0 -0 -0 -0 -0 -0 -0 -0 -0 -0 -0 -0 0 0 0 -0 0 0 0 0 0 0 0 0 0 0 0 0 0 0 0 0 0 0 0 0 0 -0 -0 0
-0 0 -0 -0 -0 -0 -0 -0 -0 -0 -0 -0 -0 -0 -0 -0 0 0 0 0 0 0 0 0 0 0 0 0 0 0 0 -0 0 0 -0 0 0 0 0 0 0 0 0
-0 0 0 0 -0 -0 -0 0 -0 -0 -0 -0 -0 -0 -0 -0 -0 0 0 0 0 0 0 0 0 0 0 0 0 -0 -0 0 0 0 -0 -0 -0 -0 -0 -0 0 0 0
0 0 0 -0 0 -0 -0 0 -0 -0 -0 -0 -0 -0 -0 -0 -0 -0 0 -0 -0 -0 0 0 0 -0 0 0 0 -0 -0 -0 -0 -0 -0 -0 -0 0 0 0 0 0 0
0 0 0 -0 -0 0 -0 0 0 -0 -0 -0 -0 -0 -0 -0 -0 0 0 0 0 0 0 0 -0 -0 -0 0 0 -0 -0 0 0 0 0 0 0 0 0 0 0 0 0
0 0 0 0 0 -0 -0 0 0 0 0 0 0 -0 -0 -0 -0 -0 0 0 0 0 0 0 0 0 -0 -0 -0 -0 -0 0 0 0 0 0 0 0 0 0 0 0 0
0 0 0 0 0 0 0 0 0 0 0 0 0 0 -0 -0 -0 -0 -0 0 0 0 0 -0 -0 -0 -0 -0 -0 0 0 -0 0 0 0 0 0 0 0 0 0 0 0
0 0 0 0 0 0 0 0 0 0 0 0 0 0 0 0 0 0 0 0 0 0 0 -0 -0 -0 0 0 0 0 0 0 0 0 0 0 0 0 0 0 0 0 0
0 0 0 0 0 0 0 0 0 0 0 0 0 0 0 0 0 0 0 0 0 0 0 0 -0 0 0 0 0 0 0 0 0 0 0 0 0 0 0 0 0 0 0
0 0 0 0 0 0 0 0 0 0 0 0 0 0 0 0 0 0 0 0 0 0 0 0 -0 -0 -0 -0 -0 -0 -0 -0 0 0 0 0 0 0 0 0 0 0 0
Wind_Speed_500mb
32 23 17 7 5 14 10 17 23 29 31 23 19 15 17 17 10 6 7 15 14 16 20 25 26 31 35 37 38 41 45 49 56 58 54 51 53 61 63 48 36 41 53
40 31 23 12 4 10 7 14 21 25 27 23 23 24 22 19 16 14 9 19 19 19 22 23 27 26 30 37 42 49 57 55 60 67 62 46 50 49 40 44 50 61 58
45 37 29 16 7 5 5 13 20 21 23 20 15 27 26 22 25 34 24 30 23 8 14 18 27 25 32 43 49 51 55 67 67 63 41 37 26 48 34 37 47 55 54
46 37 30 20 11 3 5 11 18 18 23 27 24 26 29 29 24 32 38 39 39 36 24 17 24 30 40 46 50 50 61 62 65 53 48 39 61 40 37 42 51 49 44
55 45 33 22 15 9 6 8 14 16 17 23 26 28 30 27 25 27 26 31 32 33 34 21 25 43 41 47 47 58 57 57 51 54 62 55 53 50 55 42 65 64 50
53 44 32 27 20 16 8 7 11 12 14 18 23 25 29 30 23 19 12 19 23 29 26 35 30 44 45 46 44 47 51 54 53 56 52 67 60 48 62 64 64 62 49
53 50 44 36 27 19 13 8 7 8 12 15 20 23 29 31 26 26 7 11 14 31 28 31 33 34 46 36 43 36 39 53 54 58 53 54 53 57 69 70 66 56 47
53 50 44 37 30 21 18 9 6 5 9 12 19 20 22 28 29 31 26 31 30 25 23 23 33 46 46 47 40 46 50 46 38 43 44 39 57 67 64 67 53 47 36
59 53 45 38 34 26 21 12 3 6 5 9 13 15 14 21 25 31 28 34 27 17 14 18 26 42 43 35 34 44 42 41 36 43 40 38 53 62 59 33 37 41 32
51 50 45 41 37 30 22 14 7 2 4 5 11 13 10 15 19 24 30 25 23 23 22 24 25 33 32 29 33 34 31 32 39 37 36 38 51 51 43 38 37 24 31
53 50 46 42 37 33 26 17 10 3 4 5 7 11 11 10 15 18 18 19 24 26 24 33 32 29 22 18 25 27 28 29 39 39 38 37 49 47 48 44 37 25 24
55 47 46 45 44 37 30 23 14 9 6 7 9 10 10 9 12 15 20 22 24 27 28 31 34 44 45 41 40 37 38 39 40 35 35 41 41 37 36 33 26 19 22
54 49 48 50 47 41 33 29 20 18 11 10 10 10 12 11 14 12 16 23 26 28 28 27 29 35 37 36 38 37 37 37 34 35 39 41 35 37 37 33 24 25 22
60 55 51 51 49 44 38 33 25 25 18 13 11 11 13 15 18 16 15 18 18 19 25 28 29 30 32 31 29 30 34 38 39 38 38 36 34 33 33 28 23 18 24
56 63 60 56 54 49 45 38 30 29 24 18 13 11 14 21 20 21 18 18 18 20 22 22 24 24 23 23 25 26 25 23 25 28 32 31 28 27 26 21 20 20 21
61 65 63 61 60 56 51 45 37 34 28 23 18 13 13 23 27 24 23 22 21 22 22 23 23 23 20 20 20 20 23 24 26 28 29 30 30 28 25 21 18 16 17
53 68 76 68 63 61 55 52 44 37 32 29 25 17 14 22 31 31 29 25 24 21 21 21 18 14 14 16 18 20 21 22 23 24 25 24 20 17 14 14 15 18 20
45 58 71 73 62 58 58 50 48 43 37 35 32 25 19 24 31 36 34 30 27 25 23 20 16 12 12 14 16 19 22 23 22 21 19 17 15 14 13 12 13 13 15
29 40 50 74 68 61 58 57 54 49 44 41 38 32 25 25 30 34 37 36 33 30 27 24 20 17 17 19 21 22 23 23 23 23 22 21 19 16 14 12 9 7 6
23 39 41 59 74 66 61 63 61 57 53 47 41 37 30 27 27 30 35 35 34 30 29 27 26 25 24 25 26 26 27 26 24 23 21 18 14 9 4 2 5 10 13
21 39 48 45 62 76 71 69 68 66 57 49 43 40 36 30 29 30 32 33 36 36 35 33 31 29 31 32 30 28 26 23 19 17 15 11 9 10 12 16 20 24 28
21 43 53 51 50 71 80 76 76 66 63 57 51 46 41 38 39 37 38 39 39 38 37 35 35 35 34 31 28 24 21 19 18 17 14 15 18 21 26 31 33 37 41
20 37 54 53 54 63 83 87 76 72 70 66 60 53 47 46 44 45 47 46 44 42 40 39 38 36 33 30 26 23 22 22 22 23 24 24 27 34 41 43 45 49 52
28 40 53 54 51 60 75 90 82 77 73 73 68 60 55 53 51 50 52 51 51 49 47 45 42 37 34 31 28 27 27 28 30 31 32 35 40 45 49 51 50 50 52
28 35 47 50 53 54 69 83 90 82 79 77 75 71 64 60 58 57 59 59 54 52 51 47 41 39 37 36 34 29 30 34 37 39 40 43 45 43 42 42 46 49 48
32 31 34 43 51 57 64 74 86 92 85 83 81 81 78 72 66 62 60 58 54 49 47 46 45 42 40 37 36 38 41 44 47 51 55 53 39 44 40 36 33 39 39
Wind_Direction_500mb
211 206 205 213 323 352 349 2 12 13 13 13 10 10 357 8 18 342 335 271 214 191 187 188 188 189 185 185 180 175 169 166 167 173 170 171 173 164 166 158 171 179 165
207 204 202 200 237 352 0 15 22 18 17 17 15 15 19 44 52 30 5 42 166 182 179 185 188 185 182 182 174 169 163 158 174 162 148 124 147 165 152 173 173 160 161
202 201 197 193 196 4 32 46 32 25 26 20 27 34 39 55 70 59 66 88 90 147 159 174 188 181 179 169 165 169 167 166 173 160 156 132 136 148 147 159 150 156 157
204 201 192 188 181 145 97 59 43 37 40 40 38 48 47 66 76 64 60 67 73 80 114 109 137 164 155 158 161 166 165 166 165 157 150 156 151 137 127 156 155 157 154
199 195 191 173 173 160 124 81 54 43 41 39 39 42 45 63 62 65 61 61 66 67 78 100 142 157 155 158 166 168 171 174 164 163 159 166 156 156 150 122 132 152 147
193 193 180 171 174 171 144 110 67 49 49 43 42 36 48 57 56 43 39 63 49 62 80 92 104 133 150 154 150 170 176 173 175 179 167 160 149 165 156 137 137 136 143
185 186 181 177 177 173 170 130 75 58 57 51 44 42 49 51 61 42 81 121 80 91 96 90 89 121 141 134 170 177 182 178 182 184 175 178 162 170 152 142 139 140 142
185 187 184 178 176 171 177 171 80 66 74 64 46 47 55 52 56 42 102 109 130 108 88 100 104 116 120 142 146 159 169 165 170 177 185 185 185 177 163 153 147 147 147
186 188 183 180 176 172 169 177 140 30 87 62 55 49 60 60 50 43 113 110 113 128 131 95 130 133 147 138 130 141 162 179 197 191 184 187 179 182 172 165 162 162 154
189 188 184 183 180 174 178 186 184 307 161 78 68 63 73 71 66 71 79 101 91 112 121 108 109 125 136 148 144 136 126 144 168 179 184 179 171 165 175 180 187 201 173
191 191 187 186 185 183 188 189 185 202 188 150 107 85 86 96 81 89 78 68 74 81 85 99 114 138 134 152 155 154 160 140 145 150 164 168 171 179 182 189 196 199 200
190 193 190 188 191 192 195 196 192 177 174 161 145 127 111 109 107 97 89 91 93 90 88 83 85 95 115 114 107 116 132 144 143 152 164 167 171 170 173 173 179 177 180
190 195 193 194 194 195 199 191 186 180 168 153 143 144 141 128 142 115 104 106 100 95 97 96 94 97 108 104 102 104 114 128 138 149 158 161 167 164 162 164 177 158 168
191 196 198 198 196 194 194 188 183 184 176 162 143 140 153 155 157 143 124 122 112 113 104 107 107 105 105 104 101 107 113 115 116 124 132 139 146 151 148 147 147 144 154
192 199 201 201 199 195 195 193 188 187 183 174 162 152 159 170 164 167 151 141 134 127 124 132 126 122 118 114 118 120 124 127 125 129 130 129 133 142 147 155 174 177 178
194 199 203 204 203 200 195 193 190 186 186 185 176 176 166 173 174 171 166 160 148 141 136 138 146 147 144 138 133 134 140 142 143 146 152 157 163 167 169 176 178 185 208
196 199 205 206 205 204 199 195 192 188 188 189 186 184 181 175 179 179 176 170 169 160 156 155 150 149 153 162 163 167 170 172 173 173 176 180 182 188 193 196 201 205 210
202 207 206 207 206 204 202 198 196 194 191 192 192 189 187 180 181 185 184 182 179 180 182 185 194 196 188 183 178 180 180 180 183 185 185 179 177 179 178 185 190 197 211
193 206 215 212 205 203 202 200 198 200 197 195 194 193 188 185 182 184 187 189 190 190 193 196 198 191 176 164 156 155 152 149 148 146 145 147 150 154 157 163 170 182 213
201 192 205 212 210 206 200 200 201 201 202 198 195 193 189 187 182 181 185 186 187 189 190 187 178 169 161 155 151 148 143 142 142 142 143 145 151 154 163 258 294 297 297
223 199 201 200 207 206 201 202 202 205 201 198 196 195 192 186 182 179 175 174 175 175 173 171 170 165 157 153 151 150 148 151 158 170 179 190 214 244 264 276 284 289 291
224 206 202 203 207 208 205 204 206 203 201 199 197 197 193 189 187 184 179 177 178 177 178 177 174 170 169 168 167 166 168 182 198 213 228 246 260 278 289 292 293 292 290
246 219 203 203 209 208 206 208 212 203 202 203 200 197 195 194 193 190 187 186 186 186 186 184 182 182 184 184 186 191 201 217 233 242 250 268 285 289 290 295 295 295 293
248 221 202 207 210 205 205 210 210 205 203 204 204 200 200 199 199 199 198 198 196 193 192 193 193 197 202 206 211 218 226 239 256 270 282 285 284 285 288 292 293 292 289
208 218 207 206 212 210 205 207 210 208 206 205 206 204 204 205 205 206 206 206 206 205 203 203 205 212 216 222 227 246 264 276 285 292 295 297 296 296 297 296 293 290 284
217 219 229 227 225 221 213 210 209 207 208 207 207 207 207 206 211 211 213 214 216 215 217 221 227 236 243 254 263 271 279 285 290 291 292 295 294 298 292 286 286 290 286
Wind_Speed_850mb
32 23 17 7 5 14 10 17 23 29 31 23 19 15 17 17 10 6 7 15 14 16 20 25 26 31 35 37 38 41 45 49 56 58 54 51 53 61 63 48 36 41 53
40 31 23 12 4 10 7 14 21 25 27 23 23 24 22 19 16 14 9 19 19 19 22 23 27 26 30 37 42 49 57 55 60 67 62 46 50 49 40 44 50 61 58
45 37 29 16 7 5 5 13 20 21 23 20 15 27 26 22 25 34 24 30 23 8 14 18 27 25 32 43 49 51 55 67 67 63 41 37 26 48 34 37 47 55 54
46 37 30 20 11 3 5 11 18 18 23 27 24 26 29 29 24 32 38 39 39 36 24 17 24 30 40 46 50 50 61 62 65 53 48 39 61 40 37 42 51 49 44
55 45 33 22 15 9 6 8 14 16 17 23 26 28 30 27 25 27 26 31 32 33 34 21 25 43 41 47 47 58 57 57 51 54 62 55 53 50 55 42 65 64 50
53 44 32 27 20 16 8 7 11 12 14 18 23 25 29 30 23 19 12 19 23 29 26 35 30 44 45 46 44 47 51 54 53 56 52 67 60 48 62 64 64 62 49
53 50 44 36 27 19 13 8 7 8 12 15 20 23 29 31 26 26 7 11 14 31 28 31 33 34 46 36 43 36 39 53 54 58 53 54 53 57 69 70 66 56 47
53 50 44 37 30 21 18 9 6 5 9 12 19 20 22 28 29 31 26 31 30 25 23 23 33 46 46 47 40 46 50 46 38 43 44 39 57 67 64 67 53 47 36
59 53 45 38 34 26 21 12 3 6 5 9 13 15 14 21 25 31 28 34 27 17 14 18 26 42 43 35 34 44 42 41 36 43 40 38 53 62 59 33 37 41 32
51 50 45 41 37 30 22 14 7 2 4 5 11 13 10 15 19 24 30 25 23 23 22 24 25 33 32 29 33 34 31 32 39 37 36 38 51 51 43 38 37 24 31
53 50 46 42 37 33 26 17 10 3 4 5 7 11 11 10 15 18 18 19 24 26 24 33 32 29 22 18 25 27 28 29 39 39 38 37 49 47 48 44 37 25 24
55 47 46 45 44 37 30 23 14 9 6 7 9 10 10 9 12 15 20 22 24 27 28 31 34 44 45 41 40 37 38 39 40 35 35 41 41 37 36 33 26 19 22
54 49 48 50 47 41 33 29 20 18 11 10 10 10 12 11 14 12 16 23 26 28 28 27 29 35 37 36 38 37 37 37 34 35 39 41 35 37 37 33 24 25 22
60 55 51 51 49 44 38 33 25 25 18 13 11 11 13 15 18 16 15 18 18 19 25 28 29 30 32 31 29 30 34 38 39 38 38 36 34 33 33 28 23 18 24
56 63 60 56 54 49 45 38 30 29 24 18 13 11 14 21 20 21 18 18 18 20 22 22 24 24 23 23 25 26 25 23 25 28 32 31 28 27 26 21 20 20 21
61 65 63 61 60 56 51 45 37 34 28 23 18 13 13 23 27 24 23 22 21 22 22 23 23 23 20 20 20 20 23 24 26 28 29 30 30 28 25 21 18 16 17
53 68 76 68 63 61 55 52 44 37 32 29 25 17 14 22 31 31 29 25 24 21 21 21 18 14 14 16 18 20 21 22 23 24 25 24 20 17 14 14 15 18 20
45 58 71 73 62 58 58 50 48 43 37 35 32 25 19 24 31 36 34 30 27 25 23 20 16 12 12 14 16 19 22 23 22 21 19 17 15 14 13 12 13 13 15
29 40 50 74 68 61 58 57 54 49 44 41 38 32 25 25 30 34 37 36 33 30 27 24 20 17 17 19 21 22 23 23 23 23 22 21 19 16 14 12 9 7 6
23 39 41 59 74 66 61 63 61 57 53 47 41 37 30 27 27 30 35 35 34 30 29 27 26 25 24 25 26 26 27 26 24 23 21 18 14 9 4 2 5 10 13
21 39 48 45 62 76 71 69 68 66 57 49 43 40 36 30 29 30 32 33 36 36 35 33 31 29 31 32 30 28 26 23 19 17 15 11 9 10 12 16 20 24 28
21 43 53 51 50 71 80 76 76 66 63 57 51 46 41 38 39 37 38 39 39 38 37 35 35 35 34 31 28 24 21 19 18 17 14 15 18 21 26 31 33 37 41
20 37 54 53 54 63 83 87 76 72 70 66 60 53 47 46 44 45 47 46 44 42 40 39 38 36 33 30 26 23 22 22 22 23 24 24 27 34 41 43 45 49 52
28 40 53 54 51 60 75 90 82 77 73 73 68 60 55 53 51 50 52 51 51 49 47 45 42 37 34 31 28 27 27 28 30 31 32 35 40 45 49 51 50 50 52
28 35 47 50 53 54 69 83 90 82 79 77 75 71 64 60 58 57 59 59 54 52 51 47 41 39 37 36 34 29 30 34 37 39 40 43 45 43 42 42 46 49 48
32 31 34 43 51 57 64 74 86 92 85 83 81 81 78 72 66 62 60 58 54 49 47 46 45 42 40 37 36 38 41 44 47 51 55 53 39 44 40 36 33 39 39
Wind_Direction_850mb
211 206 205 213 323 352 349 2 12 13 13 13 10 10 357 8 18 342 335 271 214 191 187 188 188 189 185 185 180 175 169 166 167 173 170 171 173 164 166 158 171 179 165
207 204 202 200 237 352 0 15 22 18 17 17 15 15 19 44 52 30 5 42 166 182 179 185 188 185 182 182 174 169 163 158 174 162 148 124 147 165 152 173 173 160 161
202 201 197 193 196 4 32 46 32 25 26 20 27 34 39 55 70 59 66 88 90 147 159 174 188 181 179 169 165 169 167 166 173 160 156 132 136 148 147 159 150 156 157
204 201 192 188 181 145 97 59 43 37 40 40 38 48 47 66 76 64 60 67 73 80 114 109 137 164 155 158 161 166 165 166 165 157 150 156 151 137 127 156 155 157 154
199 195 191 173 173 160 124 81 54 43 41 39 39 42 45 63 62 65 61 61 66 67 78 100 142 157 155 158 166 168 171 174 164 163 159 166 156 156 150 122 132 152 147
193 193 180 171 174 171 144 110 67 49 49 43 42 36 48 57 56 43 39 63 49 62 80 92 104 133 150 154 150 170 176 173 175 179 167 160 149 165 156 137 137 136 143
185 186 181 177 177 173 170 130 75 58 57 51 44 42 49 51 61 42 81 121 80 91 96 90 89 121 141 134 170 177 182 178 182 184 175 178 162 170 152 142 139 140 142
185 187 184 178 176 171 177 171 80 66 74 64 46 47 55 52 56 42 102 109 130 108 88 100 104 116 120 142 146 159 169 165 170 177 185 185 185 177 163 153 147 147 147
186 188 183 180 176 172 169 177 140 30 87 62 55 49 60 60 50 43 113 110 113 128 131 95 130 133 147 138 130 141 162 179 197 191 184 187 179 182 172 165 162 162 154
189 188 184 183 180 174 178 186 184 307 161 78 68 63 73 71 66 71 79 101 91 112 121 108 109 125 136 148 144 136 126 144 168 179 184 179 171 165 175 180 187 201 173
191 191 187 186 185 183 188 189 185 202 188 150 107 85 86 96 81 89 78 68 74 81 85 99 114 138 134 152 155 154 160 140 145 150 164 168 171 179 182 189 196 199 200
190 193 190 188 191 192 195 196 192 177 174 161 145 127 111 109 107 97 89 91 93 90 88 83 85 95 115 114 107 116 132 144 143 152 164 167 171 170 173 173 179 177 180
190 195 193 194 194 195 199 191 186 180 168 153 143 144 141 128 142 115 104 106 100 95 97 96 94 97 108 104 102 104 114 128 138 149 158 161 167 164 162 164 177 158 168
191 196 198 198 196 194 194 188 183 184 176 162 143 140 153 155 157 143 124 122 112 113 104 107 107 105 105 104 101 107 113 115 116 124 132 139 146 151 148 147 147 144 154
192 199 201 201 199 195 195 193 188 187 183 174 162 152 159 170 164 167 151 141 134 127 124 132 126 122 118 114 118 120 124 127 125 129 130 129 133 142 147 155 174 177 178
194 199 203 204 203 200 195 193 190 186 186 185 176 176 166 173 174 171 166 160 148 141 136 138 146 147 144 138 133 134 140 142 143 146 152 157 163 167 169 176 178 185 208
196 199 205 206 205 204 199 195 192 188 188 189 186 184 181 175 179 179 176 170 169 160 156 155 150 149 153 162 163 167 170 172 173 173 176 180 182 188 193 196 201 205 210
202 207 206 207 206 204 202 198 196 194 191 192 192 189 187 180 181 185 184 182 179 180 182 185 194 196 188 183 178 180 180 180 183 185 185 179 177 179 178 185 190 197 211
193 206 215 212 205 203 202 200 198 200 197 195 194 193 188 185 182 184 187 189 190 190 193 196 198 191 176 164 156 155 152 149 148 146 145 147 150 154 157 163 170 182 213
201 192 205 212 210 206 200 200 201 201 202 198 195 193 189 187 182 181 185 186 187 189 190 187 178 169 161 155 151 148 143 142 142 142 143 145 151 154 163 258 294 297 297
223 199 201 200 207 206 201 202 202 205 201 198 196 195 192 186 182 179 175 174 175 175 173 171 170 165 157 153 151 150 148 151 158 170 179 190 214 244 264 276 284 289 291
224 206 202 203 207 208 205 204 206 203 201 199 197 197 193 189 187 184 179 177 178 177 178 177 174 170 169 168 167 166 168 182 198 213 228 246 260 278 289 292 293 292 290
246 219 203 203 209 208 206 208 212 203 202 203 200 197 195 194 193 190 187 186 186 186 186 184 182 182 184 184 186 191 201 217 233 242 250 268 285 289 290 295 295 295 293
248 221 202 207 210 205 205 210 210 205 203 204 204 200 200 199 199 199 198 198 196 193 192 193 193 197 202 206 211 218 226 239 256 270 282 285 284 285 288 292 293 292 289
208 218 207 206 212 210 205 207 210 208 206 205 206 204 204 205 205 206 206 206 206 205 203 203 205 212 216 222 227 246 264 276 285 292 295 297 296 296 297 296 293 290 284
217 219 229 227 225 221 213 210 209 207 208 207 207 207 207 206 211 211 213 214 216 215 217 221 227 236 243 254 263 271 279 285 290 291 292 295 294 298 292 286 286 290 286